User: anonymous
Location: Minneapolis
(44.9800°N, 93.2640°W)
Time: 09:15:14
(UTC-05:00)
Language:

Iridium 96 - Orbit

View from above orbital plane
View from above orbital plane
View from above satellite
View from above satellite

Ground track
Ground track

The orbit data is extracted from the following two-line orbital elements,

1 27376U 02005E   14273.32074537  .00000642  00000-0  22222-3 0  6712
2 27376 086.4042 013.0430 0005160 123.9392 236.2295 14.34220092674095
Epoch (UTC): 30 September 2014 07:41:52
Eccentricity: 0.0005160
inclination: 86.4042°
perigee height: 774 km
apogee height: 781 km
right ascension of ascending node: 13.0430°
argument of perigee: 123.9392°
revolutions per day: 14.34220092
mean anomaly at epoch: 236.2295°
orbit number at epoch: 67409

The dashed part of the orbit path shows where the satellite is in the earth's shadow,  

DLR